Location: Newark
(49.2191°N, 12.6671°E)
Time: 00:03:20
(UTC+00:00)

Courier 1B Rocket - All Passes

Search period start: 18 January 2020 00:00
Search period end: 28 January 2020 00:00
Orbit: 920 x 1202 km, 28.2° (Epoch: 17 January)

Date Brightness Start Highest point End Pass type
(mag) Time Alt. Az. Time Alt. Az. Time Alt. Az.
22 Jan - 14:00:58 10° SSW 14:01:59 10° S 14:02:59 10° S daylight
23 Jan - 13:00:02 10° S 13:01:24 11° S 13:02:45 10° SSE daylight
24 Jan - 11:59:52 10° S 12:00:48 10° S 12:01:43 10° SSE daylight
24 Jan - 13:52:12 10° SSW 13:52:46 10° S 13:53:20 10° S daylight
25 Jan - 12:50:17 10° SSW 12:52:11 11° S 12:54:03 10° SSE daylight
26 Jan - 11:49:18 10° SSW 11:51:34 12° S 11:53:46 10° SSE daylight
27 Jan - 10:48:48 10° S 10:50:55 11° S 10:53:00 10° SSE daylight
27 Jan - 12:41:11 10° SSW 12:42:56 11° S 12:44:40 10° S daylight
